This is the latest recevied weather packets stored in our database for station/object WA6ODQ-13. If no packets are shown the sender has not sent any weather packets the latest 10 day(s).
| Time | Temp. | Humidity | Pressure | Rain* | Wind** | Luminosity | Snow |
|---|---|---|---|---|---|---|---|
| 1777494851 | 26.67° C | 41% | 1014.8 hPa | 0 mm | - | 721 W/m² | - |
| 1777494548 | 26.67° C | 44% | 1015.2 hPa | 0 mm | - | 721 W/m² | - |
| 1777494246 | 26.67° C | 44% | 1014.9 hPa | 0 mm | - | 724 W/m² | - |
| 1777493942 | 26.67° C | 45% | 1015 hPa | 0 mm | - | 723 W/m² | - |
| 1777493641 | 26.67° C | 47% | 1015.1 hPa | 0 mm | - | 723 W/m² | - |
| 1777493337 | 26.67° C | 46% | 1015.4 hPa | 0 mm | - | 727 W/m² | - |
| 1777493034 | 26.11° C | 48% | 1015.2 hPa | 0 mm | - | 722 W/m² | - |
| 1777492731 | 26.11° C | 46% | 1015.3 hPa | 0 mm | - | 724 W/m² | - |
| 1777492431 | 26.67° C | 43% | 1015.2 hPa | 0 mm | - | 729 W/m² | - |
| 1777492123 | 26.67° C | 38% | 1015.4 hPa | 0 mm | - | 728 W/m² | - |
| 1777491820 | 26.67° C | 39% | 1015.4 hPa | 0 mm | - | 727 W/m² | - |
| 1777491517 | 25.56° C | 42% | 1015.5 hPa | 0 mm | - | 727 W/m² | - |
| 1777491214 | 25.56° C | 42% | 1015.6 hPa | 0 mm | - | 724 W/m² | - |
| 1777490910 | 25.56° C | 43% | 1015.6 hPa | 0 mm | - | 721 W/m² | - |
| 1777490606 | 25.56° C | 43% | 1015.7 hPa | 0 mm | - | 718 W/m² | - |
| 1777490302 | 24.44° C | 45% | 1015.8 hPa | 0 mm | - | 715 W/m² | - |
| 1777490000 | 24.44° C | 45% | 1016 hPa | 0 mm | - | 709 W/m² | - |
| 1777489698 | 24.44° C | 45% | 1016 hPa | 0 mm | - | 706 W/m² | - |
| 1777489394 | 23.89° C | 46% | 1016.3 hPa | 0 mm | - | 700 W/m² | - |
| 1777489091 | 23.89° C | 46% | 1016.1 hPa | 0 mm | - | 697 W/m² | - |
| 1777488788 | 25.56° C | 44% | 1016.2 hPa | 0 mm | - | 690 W/m² | - |
| 1777488486 | 25° C | 47% | 1016.4 hPa | 0 mm | - | 685 W/m² | - |
| 1777488184 | 25.56° C | 46% | 1016.3 hPa | 0 mm | - | 678 W/m² | - |
| 1777487881 | 25° C | 48% | 1016.4 hPa | 0 mm | - | 671 W/m² | - |
| 1777487579 | 25° C | 46% | 1016.2 hPa | 0 mm | - | 667 W/m² | - |
* Rain latest hour (hover to see other rain measurements)
** Current wind speed in m/s (hover to see current wind gust speed)